Orbital Elements at Epoch 2459200.5 (2020-Dec-17.0) TDB
Reference: JPL 17 (heliocentric ecliptic J2000)
Element | Value | Uncertainty (1-sigma) | Units |
e | .1531474368437392 | 6.1486e-08 | |
a | 2.761677102668372 | 1.3621e-08 | au |
q | 2.338733333004667 | 1.6705e-07 | au |
i | 8.592378883756609 | 6.4398e-06 | deg |
node | 308.002698821843 | 3.0087e-05 | deg |
peri | 202.8524600508107 | 3.3452e-05 | deg |
M | 70.610853082014 | 1.3127e-05 | deg |
tp | 2458871.703842633828 (2020-Jan-23.20384263) | 6.0808e-05 | TDB |
period | 1676.32327730611 4.59 | 1.2402e-05 3.395e-08 | d yr |
n | .2147557126203773 | 1.5888e-09 | deg/d |
Q | 3.184620872332077 | 1.5707e-08 | au |
|
| | Orbit Determination Parameters
Additional Information
|